Time,TemperatureF,DewpointF,PressureIn,WindDirection,WindDirectionDegrees,WindSpeedMPH,WindSpeedGustMPH,Humidity,HourlyPrecipIn,Conditions,Clouds,dailyrainin,SoftwareType,DateUTC
2013-04-08 00:03:00,36.0,34.0,-100.00,WNW,293,0.0,0.0,91,0.00,,,0.00,,2013-04-08 04:03:00,
2013-04-08 00:12:00,36.0,34.0,-100.00,WNW,293,0.0,0.0,91,0.00,,,0.00,,2013-04-08 04:12:00,
2013-04-08 00:23:00,35.0,33.0,-100.00,WNW,293,0.0,0.0,92,0.00,,,0.00,,2013-04-08 04:23:00,
2013-04-08 00:33:00,35.0,33.0,-100.00,WNW,293,0.0,0.0,92,0.00,,,0.00,,2013-04-08 04:33:00,
2013-04-08 00:44:00,35.0,33.0,-100.00,WNW,293,0.0,0.0,92,0.00,,,0.00,,2013-04-08 04:44:00,
2013-04-08 00:52:00,35.0,33.0,-100.00,WNW,293,0.0,0.0,93,0.00,,,0.00,,2013-04-08 04:52:00,
2013-04-08 01:02:00,34.0,32.0,-100.00,WNW,293,0.0,0.0,93,0.00,,,0.00,,2013-04-08 05:02:00,
2013-04-08 01:12:00,34.0,32.0,-100.00,WNW,293,0.0,0.0,93,0.00,,,0.00,,2013-04-08 05:12:00,
2013-04-08 01:22:00,34.0,32.0,-100.00,WNW,293,0.0,0.0,93,0.00,,,0.00,,2013-04-08 05:22:00,
2013-04-08 01:32:00,33.0,31.0,-100.00,WNW,293,0.0,0.0,94,0.00,,,0.00,,2013-04-08 05:32:00,
2013-04-08 01:42:00,33.0,32.0,-100.00,WNW,293,0.0,0.0,95,0.00,,,0.00,,2013-04-08 05:42:00,
2013-04-08 01:52:00,33.0,32.0,-100.00,WNW,293,0.0,0.0,95,0.00,,,0.00,,2013-04-08 05:52:00,
2013-04-08 02:02:00,32.0,31.0,-100.00,WNW,293,0.0,0.0,96,0.00,,,0.00,,2013-04-08 06:02:00,
2013-04-08 02:12:00,33.0,32.0,-100.00,WNW,293,0.0,0.0,96,0.00,,,0.00,,2013-04-08 06:12:00,
2013-04-08 02:22:00,33.0,32.0,-100.00,WNW,293,0.0,0.0,96,0.00,,,0.00,,2013-04-08 06:22:00,
2013-04-08 02:32:00,33.0,32.0,-100.00,WNW,293,0.0,0.0,96,0.00,,,0.00,,2013-04-08 06:32:00,
2013-04-08 02:43:00,33.0,32.0,-100.00,WNW,293,0.0,0.0,96,0.00,,,0.00,,2013-04-08 06:43:00,
2013-04-08 02:52:00,34.0,33.0,-100.00,WNW,293,0.0,0.0,96,0.00,,,0.00,,2013-04-08 06:52:00,
2013-04-08 03:02:00,33.0,32.0,-100.00,WNW,293,0.0,0.0,96,0.00,,,0.00,,2013-04-08 07:02:00,
2013-04-08 03:12:00,33.0,32.0,-100.00,WNW,293,0.0,0.0,96,0.00,,,0.00,,2013-04-08 07:12:00,
2013-04-08 03:22:00,33.0,32.0,-100.00,WNW,293,0.0,0.0,96,0.00,,,0.00,,2013-04-08 07:22:00,
2013-04-08 03:33:00,33.0,32.0,-100.00,WNW,293,0.0,0.0,96,0.00,,,0.00,,2013-04-08 07:33:00,
2013-04-08 03:42:00,33.0,32.0,-100.00,WNW,293,0.0,0.0,96,0.00,,,0.00,,2013-04-08 07:42:00,
2013-04-08 03:52:00,33.0,32.0,-100.00,WNW,293,0.0,0.0,96,0.00,,,0.00,,2013-04-08 07:52:00,
2013-04-08 04:02:00,33.0,32.0,-100.00,WNW,293,0.0,0.0,96,0.00,,,0.00,,2013-04-08 08:02:00,
2013-04-08 04:12:00,33.0,32.0,-100.00,WNW,293,0.0,0.0,96,0.00,,,0.00,,2013-04-08 08:12:00,
2013-04-08 04:22:00,33.0,32.0,-100.00,WNW,293,0.0,0.0,96,0.00,,,0.00,,2013-04-08 08:22:00,
2013-04-08 04:33:00,33.0,32.0,-100.00,WNW,293,0.0,0.0,97,0.00,,,0.00,,2013-04-08 08:33:00,
2013-04-08 04:42:00,33.0,32.0,-100.00,WNW,293,0.0,0.0,98,0.00,,,0.00,,2013-04-08 08:42:00,
2013-04-08 04:52:00,33.0,32.0,-100.00,WNW,293,0.0,0.0,98,0.00,,,0.00,,2013-04-08 08:52:00,
2013-04-08 05:02:00,33.0,32.0,-100.00,WNW,293,0.0,0.0,98,0.00,,,0.00,,2013-04-08 09:02:00,
2013-04-08 05:12:00,34.0,34.0,-100.00,WNW,293,0.0,0.0,98,0.00,,,0.00,,2013-04-08 09:12:00,
2013-04-08 05:22:00,34.0,34.0,-100.00,WNW,293,0.0,0.0,98,0.00,,,0.00,,2013-04-08 09:22:00,
2013-04-08 05:33:00,34.0,33.0,-100.00,WNW,293,0.0,0.0,97,0.00,,,0.00,,2013-04-08 09:33:00,
2013-04-08 05:43:00,34.0,33.0,-100.00,WNW,293,0.0,0.0,97,0.00,,,0.00,,2013-04-08 09:43:00,
2013-04-08 05:53:00,34.0,33.0,-100.00,WNW,293,0.0,0.0,97,0.00,,,0.00,,2013-04-08 09:53:00,
2013-04-08 06:03:00,34.0,33.0,-100.00,East,90,0.0,0.0,97,0.00,,,0.00,,2013-04-08 10:03:00,
2013-04-08 06:13:00,34.0,33.0,-100.00,ENE,68,0.0,0.0,97,0.00,,,0.00,,2013-04-08 10:13:00,
2013-04-08 06:23:00,34.0,33.0,-100.00,ENE,68,0.0,0.0,97,0.00,,,0.00,,2013-04-08 10:23:00,
2013-04-08 06:33:00,34.0,33.0,-100.00,East,90,0.0,0.0,97,0.00,,,0.00,,2013-04-08 10:33:00,
2013-04-08 06:42:00,34.0,33.0,-100.00,East,90,0.0,0.0,97,0.00,,,0.00,,2013-04-08 10:42:00,
2013-04-08 06:52:00,34.0,33.0,-100.00,East,90,0.0,0.0,97,0.00,,,0.00,,2013-04-08 10:52:00,
2013-04-08 07:02:00,34.0,33.0,-100.00,ENE,68,0.0,0.0,97,0.00,,,0.00,,2013-04-08 11:02:00,
2013-04-08 07:12:00,35.0,34.0,-100.00,ENE,68,0.0,0.0,97,0.00,,,0.00,,2013-04-08 11:12:00,
2013-04-08 07:22:00,35.0,34.0,-100.00,ENE,68,0.0,0.0,97,0.00,,,0.00,,2013-04-08 11:22:00,
2013-04-08 07:32:00,34.0,33.0,-100.00,ENE,68,0.0,0.0,97,0.00,,,0.00,,2013-04-08 11:32:00,
2013-04-08 07:42:00,34.0,33.0,-100.00,ENE,68,0.0,0.0,97,0.00,,,0.00,,2013-04-08 11:42:00,
2013-04-08 07:52:00,36.0,35.0,-100.00,ENE,68,3.0,6.0,97,0.00,,,0.00,,2013-04-08 11:52:00,
2013-04-08 08:03:00,37.0,36.0,-100.00,East,90,2.0,2.0,96,0.00,,,0.00,,2013-04-08 12:03:00,
2013-04-08 08:12:00,37.0,36.0,-100.00,East,90,2.0,2.0,96,0.00,,,0.00,,2013-04-08 12:12:00,
2013-04-08 08:23:00,38.0,37.0,-100.00,East,90,0.0,0.0,95,0.00,,,0.00,,2013-04-08 12:23:00,
2013-04-08 08:33:00,38.0,36.0,-100.00,East,90,2.0,2.0,94,0.00,,,0.00,,2013-04-08 12:33:00,
2013-04-08 08:42:00,38.0,36.0,-100.00,East,90,2.0,2.0,94,0.00,,,0.00,,2013-04-08 12:42:00,
2013-04-08 08:52:00,39.0,37.0,-100.00,East,90,5.0,7.0,93,0.00,,,0.00,,2013-04-08 12:52:00,
2013-04-08 09:03:00,40.0,38.0,-100.00,East,90,6.0,7.0,92,0.00,,,0.00,,2013-04-08 13:03:00,
2013-04-08 09:12:00,40.0,38.0,-100.00,East,90,6.0,7.0,92,0.00,,,0.00,,2013-04-08 13:12:00,
2013-04-08 09:22:00,40.0,38.0,-100.00,ENE,68,6.0,7.0,91,0.00,,,0.00,,2013-04-08 13:22:00,
2013-04-08 09:32:00,41.0,38.0,-100.00,East,90,6.0,9.0,90,0.00,,,0.00,,2013-04-08 13:32:00,
2013-04-08 09:42:00,41.0,38.0,-100.00,East,90,6.0,9.0,90,0.00,,,0.00,,2013-04-08 13:42:00,
2013-04-08 09:52:00,42.0,39.0,-100.00,East,90,6.0,8.0,88,0.00,,,0.00,,2013-04-08 13:52:00,
2013-04-08 10:03:00,43.0,39.0,-100.00,East,90,2.0,6.0,86,0.00,,,0.00,,2013-04-08 14:03:00,
2013-04-08 10:12:00,44.0,39.0,-100.00,SSE,158,2.0,3.0,84,0.00,,,0.00,,2013-04-08 14:12:00,
2013-04-08 10:22:00,44.0,39.0,-100.00,SSE,158,2.0,3.0,84,0.00,,,0.00,,2013-04-08 14:22:00,
2013-04-08 10:32:00,46.0,40.0,-100.00,ESE,113,7.0,9.0,78,0.00,,,0.00,,2013-04-08 14:32:00,
2013-04-08 10:42:00,47.0,40.0,-100.00,ESE,113,5.0,8.0,76,0.00,,,0.00,,2013-04-08 14:42:00,
2013-04-08 10:52:00,47.0,40.0,-100.00,ESE,113,5.0,8.0,76,0.00,,,0.00,,2013-04-08 14:52:00,
2013-04-08 11:02:00,47.0,39.0,-100.00,ESE,113,8.0,9.0,74,0.00,,,0.00,,2013-04-08 15:02:00,
2013-04-08 11:12:00,48.0,40.0,-100.00,East,90,6.0,8.0,73,0.00,,,0.00,,2013-04-08 15:12:00,
2013-04-08 11:22:00,48.0,40.0,-100.00,East,90,6.0,8.0,73,0.00,,,0.00,,2013-04-08 15:22:00,
2013-04-08 11:43:00,48.0,39.0,-100.00,East,90,6.0,7.0,71,0.00,,,0.00,,2013-04-08 15:43:00,
2013-04-08 11:53:00,48.0,39.0,-100.00,ESE,113,6.0,8.0,71,0.00,,,0.00,,2013-04-08 15:53:00,
2013-04-08 12:03:00,48.0,42.0,-100.00,East,90,1.0,8.0,80,0.00,,,0.00,,2013-04-08 16:03:00,
2013-04-08 12:13:00,46.0,43.0,-100.00,ENE,68,0.0,0.0,90,0.00,,,0.00,,2013-04-08 16:13:00,
2013-04-08 12:23:00,46.0,43.0,-100.00,ENE,68,0.0,0.0,90,0.00,,,0.00,,2013-04-08 16:23:00,
2013-04-08 12:32:00,46.0,43.0,-100.00,ENE,68,0.0,0.0,90,0.00,,,0.00,,2013-04-08 16:32:00,
2013-04-08 12:42:00,46.0,44.0,-100.00,East,90,3.0,7.0,92,0.00,,,0.00,,2013-04-08 16:42:00,
2013-04-08 12:53:00,45.0,43.0,-100.00,ESE,113,5.0,9.0,94,0.00,,,0.00,,2013-04-08 16:53:00,
2013-04-08 13:03:00,45.0,44.0,-100.00,East,90,2.0,6.0,95,0.00,,,0.00,,2013-04-08 17:03:00,
2013-04-08 13:12:00,45.0,44.0,-100.00,East,90,6.0,9.0,97,0.00,,,0.00,,2013-04-08 17:12:00,
2013-04-08 13:23:00,45.0,44.0,-100.00,East,90,6.0,9.0,97,0.00,,,0.00,,2013-04-08 17:23:00,
2013-04-08 13:32:00,45.0,44.0,-100.00,East,90,6.0,7.0,98,0.00,,,0.00,,2013-04-08 17:32:00,
2013-04-08 13:43:00,45.0,44.0,-100.00,East,90,6.0,7.0,98,0.00,,,0.00,,2013-04-08 17:43:00,
2013-04-08 13:52:00,45.0,44.0,-100.00,East,90,1.0,0.0,98,0.00,,,0.00,,2013-04-08 17:52:00,
2013-04-08 14:02:00,45.0,45.0,-100.00,East,90,2.0,5.0,99,0.00,,,0.00,,2013-04-08 18:02:00,
2013-04-08 14:12:00,45.0,45.0,-100.00,East,90,0.0,0.0,100,0.00,,,0.00,,2013-04-08 18:12:00,
2013-04-08 14:23:00,45.0,45.0,-100.00,East,90,0.0,0.0,100,0.00,,,0.00,,2013-04-08 18:23:00,
2013-04-08 14:32:00,45.0,45.0,-100.00,ESE,113,0.0,3.0,100,0.00,,,0.00,,2013-04-08 18:32:00,
2013-04-08 14:42:00,45.0,45.0,-100.00,East,90,3.0,8.0,100,0.00,,,0.00,,2013-04-08 18:42:00,
2013-04-08 14:52:00,45.0,45.0,-100.00,East,90,3.0,8.0,100,0.00,,,0.00,,2013-04-08 18:52:00,
2013-04-08 15:02:00,45.0,45.0,-100.00,SE,135,1.0,8.0,100,0.00,,,0.00,,2013-04-08 19:02:00,
2013-04-08 15:12:00,46.0,46.0,-100.00,East,90,0.0,0.0,100,0.00,,,0.00,,2013-04-08 19:12:00,
2013-04-08 15:23:00,46.0,46.0,-100.00,East,90,0.0,0.0,100,0.00,,,0.00,,2013-04-08 19:23:00,
2013-04-08 15:33:00,47.0,47.0,-100.00,East,90,3.0,7.0,100,0.00,,,0.00,,2013-04-08 19:33:00,
2013-04-08 15:42:00,47.0,47.0,-100.00,East,90,0.0,2.0,100,0.00,,,0.00,,2013-04-08 19:42:00,
2013-04-08 15:52:00,47.0,47.0,-100.00,East,90,0.0,2.0,100,0.00,,,0.00,,2013-04-08 19:52:00,
2013-04-08 16:02:00,48.0,48.0,-100.00,ESE,113,0.0,5.0,100,0.00,,,0.00,,2013-04-08 20:02:00,
2013-04-08 16:12:00,48.0,48.0,-100.00,ESE,113,0.0,5.0,100,0.00,,,0.00,,2013-04-08 20:12:00,
2013-04-08 16:23:00,48.0,48.0,-100.00,ESE,113,0.0,5.0,100,0.00,,,0.00,,2013-04-08 20:23:00,
2013-04-08 16:33:00,48.0,48.0,-100.00,SSE,158,5.0,6.0,100,0.00,,,0.00,,2013-04-08 20:33:00,
2013-04-08 16:43:00,48.0,48.0,-100.00,SSE,158,5.0,6.0,100,0.00,,,0.00,,2013-04-08 20:43:00,
2013-04-08 16:52:00,49.0,49.0,-100.00,SE,135,3.0,8.0,100,0.00,,,0.00,,2013-04-08 20:52:00,
2013-04-08 17:02:00,49.0,49.0,-100.00,SE,135,5.0,7.0,100,0.00,,,0.00,,2013-04-08 21:02:00,
2013-04-08 17:12:00,50.0,50.0,-100.00,SSE,158,7.0,9.0,100,0.00,,,0.00,,2013-04-08 21:12:00,
2013-04-08 17:22:00,50.0,50.0,-100.00,SSE,158,7.0,9.0,100,0.00,,,0.00,,2013-04-08 21:22:00,
2013-04-08 17:32:00,51.0,51.0,-100.00,ESE,113,2.0,8.0,100,0.00,,,0.00,,2013-04-08 21:32:00,
2013-04-08 17:43:00,51.0,51.0,-100.00,ESE,113,2.0,8.0,100,0.00,,,0.00,,2013-04-08 21:43:00,
2013-04-08 17:52:00,53.0,53.0,-100.00,South,180,7.0,12.0,100,0.00,,,0.00,,2013-04-08 21:52:00,
2013-04-08 18:03:00,53.0,53.0,-100.00,South,180,5.0,8.0,100,0.00,,,0.00,,2013-04-08 22:03:00,
2013-04-08 18:13:00,55.0,55.0,-100.00,South,180,6.0,7.0,99,0.00,,,0.00,,2013-04-08 22:13:00,
2013-04-08 18:23:00,55.0,55.0,-100.00,South,180,6.0,7.0,99,0.00,,,0.00,,2013-04-08 22:23:00,
2013-04-08 18:32:00,55.0,55.0,-100.00,South,180,6.0,7.0,99,0.00,,,0.00,,2013-04-08 22:32:00,
2013-04-08 18:43:00,57.0,56.0,-100.00,South,180,3.0,7.0,95,0.00,,,0.00,,2013-04-08 22:43:00,
2013-04-08 18:53:00,59.0,55.0,-100.00,SW,225,14.0,23.0,86,0.00,,,0.00,,2013-04-08 22:53:00,
2013-04-08 19:02:00,59.0,50.0,-100.00,SW,225,16.0,25.0,73,0.00,,,0.00,,2013-04-08 23:02:00,
2013-04-08 19:12:00,59.0,50.0,-100.00,SW,225,16.0,25.0,73,0.00,,,0.00,,2013-04-08 23:12:00,
2013-04-08 19:22:00,59.0,50.0,-100.00,SW,225,16.0,25.0,73,0.00,,,0.00,,2013-04-08 23:22:00,
2013-04-08 19:32:00,57.0,50.0,-100.00,WSW,248,13.0,14.0,78,0.00,,,0.00,,2013-04-08 23:32:00,
2013-04-08 19:43:00,55.0,49.0,-100.00,SW,225,12.0,18.0,81,0.00,,,0.00,,2013-04-08 23:43:00,
2013-04-08 19:52:00,55.0,49.0,-100.00,SW,225,12.0,18.0,81,0.00,,,0.00,,2013-04-08 23:52:00,
2013-04-08 20:02:00,53.0,48.0,-100.00,WSW,248,9.0,17.0,84,0.00,,,0.00,,2013-04-09 00:02:00,
2013-04-08 20:12:00,53.0,48.0,-100.00,WSW,248,9.0,17.0,84,0.00,,,0.00,,2013-04-09 00:12:00,
2013-04-08 20:22:00,51.0,48.0,-100.00,WSW,248,9.0,15.0,89,0.00,,,0.00,,2013-04-09 00:22:00,
2013-04-08 20:32:00,50.0,47.0,-100.00,WSW,248,9.0,12.0,91,0.00,,,0.00,,2013-04-09 00:32:00,
2013-04-08 20:42:00,50.0,48.0,-100.00,WSW,248,15.0,22.0,92,0.00,,,0.00,,2013-04-09 00:42:00,
2013-04-08 20:52:00,50.0,48.0,-100.00,WSW,248,15.0,22.0,92,0.00,,,0.00,,2013-04-09 00:52:00,
2013-04-08 21:02:00,48.0,46.0,-100.00,WSW,248,10.0,18.0,94,0.00,,,0.00,,2013-04-09 01:02:00,
2013-04-08 21:12:00,48.0,47.0,-100.00,West,270,12.0,14.0,96,0.00,,,0.00,,2013-04-09 01:12:00,
2013-04-08 21:22:00,48.0,47.0,-100.00,West,270,12.0,14.0,96,0.00,,,0.00,,2013-04-09 01:22:00,
2013-04-08 21:33:00,47.0,46.0,-100.00,West,270,9.0,13.0,98,0.00,,,0.00,,2013-04-09 01:33:00,
2013-04-08 21:42:00,47.0,47.0,-100.00,WSW,248,10.0,13.0,99,0.00,,,0.00,,2013-04-09 01:42:00,
2013-04-08 21:52:00,47.0,47.0,-100.00,WSW,248,10.0,13.0,99,0.00,,,0.00,,2013-04-09 01:52:00,
2013-04-08 22:02:00,47.0,47.0,-100.00,WSW,248,10.0,12.0,99,0.00,,,0.00,,2013-04-09 02:02:00,
2013-04-08 22:13:00,47.0,47.0,-100.00,WSW,248,10.0,12.0,99,0.00,,,0.00,,2013-04-09 02:13:00,
2013-04-08 22:22:00,46.0,46.0,-100.00,WSW,248,7.0,15.0,100,0.00,,,0.00,,2013-04-09 02:22:00,
2013-04-08 22:33:00,46.0,46.0,-100.00,SW,225,5.0,9.0,100,0.00,,,0.00,,2013-04-09 02:33:00,
2013-04-08 22:43:00,46.0,46.0,-100.00,West,270,8.0,10.0,100,0.00,,,0.00,,2013-04-09 02:43:00,
2013-04-08 22:52:00,46.0,46.0,-100.00,West,270,8.0,10.0,100,0.00,,,0.00,,2013-04-09 02:52:00,
2013-04-08 23:02:00,46.0,46.0,-100.00,West,270,10.0,15.0,100,0.00,,,0.00,,2013-04-09 03:02:00,
2013-04-08 23:12:00,46.0,46.0,-100.00,West,270,10.0,15.0,100,0.00,,,0.00,,2013-04-09 03:12:00,
2013-04-08 23:22:00,46.0,46.0,-100.00,West,270,12.0,16.0,100,0.00,,,0.00,,2013-04-09 03:22:00,
2013-04-08 23:33:00,45.0,45.0,-100.00,West,270,10.0,14.0,100,0.00,,,0.00,,2013-04-09 03:33:00,
2013-04-08 23:43:00,45.0,45.0,-100.00,West,270,10.0,14.0,100,0.00,,,0.00,,2013-04-09 03:43:00,
2013-04-08 23:53:00,45.0,45.0,-100.00,WNW,293,8.0,12.0,100,0.00,,,0.00,,2013-04-09 03:53:00,